Home > Weather > Geraldton > Past weeks

Flag for Australia Past Weather in Geraldton, Western Australia, Australia — Yesterday and Last 2 Weeks

Now
64 °F

Mild.


Feels Like: 64 °F
Forecast: 56 / 62 °F
Wind: 23 mph from West

Location: Geraldton Airport

Current Time: Aug 27, 2016 at 2:49:35 PM

Latest Report: Aug 27, 2016 at 2:00 PM


Visibility: N/A

Pressure: 29.76 "Hg

Humidity: 64%

Dew Point: 52 °F

Location of GeraldtonLocation

Past Weather in Geraldton — Graph

°F

Geraldton Temperature Yesterday

Maximum temperature yesterday: 75 °F (at 12:00 PM)
Minimum temperature yesterday: 46 °F (at 5:00 AM)
Average temperature yesterday: 61 °F

High & Low Weather Summary for the Past Weeks

 TemperatureHumidityPressure
High75 °F (Aug 26, 12:00 PM)97% (Aug 14, 9:00 PM)30.31 "Hg (Aug 14, 9:00 PM)
Low40 °F (Aug 24, 12:00 AM)21% (Aug 26, 11:00 AM)29.73 "Hg (Aug 27, 2:00 AM)
Average55 °F75%30.08 "Hg
* Reported Aug 12 12:00 PM — Aug 27 12:00 PM, Geraldton, Weather by CustomWeather, © 2016

Note: Actual official high and low records may vary slightly from our data, if they occured in-between our weather recording intervals... More about our weather records

Advertising

Geraldton Weather History for the Previous 24 Hours

Scroll right to see more
 ConditionsComfort  
Time TempWeatherWind HumidityBarometerVisibility
12:00 PM
Sat, Aug 27
66 °FPassing clouds.22 mph60%29.79 "HgN/A
11:00 AM65 °FMild.22 mph59%29.80 "HgN/A
9:00 AM59 °FOvercast.13 mph88%29.79 "HgN/A
8:00 AM58 °FCool.13 mph93%29.79 "HgN/A
6:00 AM58 °FOvercast.14 mph94%29.77 "Hg2 mi
5:00 AM58 °FCool.16 mph97%29.75 "HgN/A
3:00 AM60 °FLow clouds.13 mph96%29.73 "Hg4 mi
2:00 AM61 °FCool.23 mph94%29.73 "HgN/A
12:00 AM67 °FPassing clouds.22 mph63%29.74 "HgN/A
11:00 PM
Fri, Aug 26
67 °FMild.20 mph64%29.77 "HgN/A
9:00 PM67 °FMild.17 mph60%29.81 "HgN/A
8:00 PM67 °FMild.17 mph57%29.83 "HgN/A
6:00 PM67 °FMild.15 mph58%29.83 "HgN/A
5:00 PM68 °FMild.17 mph66%29.85 "HgN/A
3:00 PM72 °FMild.21 mph52%29.85 "HgN/A
2:00 PM74 °FMild.20 mph45%29.86 "HgN/A
Weather by CustomWeather, © 2016

See weather overviewHow to use our weather pages